This demonstration page uses our WeatherBlox Daily Observations layout. Learn more.

Left ArrowRight Arrow

30.21309, -93.2044

Hourly Observations for May 29, 2022

Temp ( °F °C ) Dew Point ( °F °C ) Humidity (%) Winds ( mph kmh ) Pressure ( in mb ) Visibility ( mi km ) Precip ( " mm )
12:15 am 00:15 Clear 68 20 64 17.9 88 88 S 3 6 29.86 1011 10 16 0.00 0.00
12:35 am 00:35 Clear 67 19.6 63 17.4 87 87 S 7 11 29.86 1011 10 16 0.00 0.00
12:55 am 00:55 Clear 67 19.2 63 17.3 89 89 S 5 7 29.86 1011 10 16 0.00 0.00
1:15 am 01:15 Clear 68 19.8 64 17.6 87 87 S 5 7 29.85 1011 10 16 0.00 0.00
1:35 am 01:35 Clear 66 18.9 63 17.3 90 90 S 3 6 29.84 1010 10 16 0.00 0.00
1:55 am 01:55 Clear 65 18.5 63 17.2 92 92 SSE 5 7 29.84 1010 10 16 0.00 0.00
2:15 am 02:15 Clear 65 18.2 63 17 93 93 S 3 6 29.84 1010 10 16 0.00 0.00
2:35 am 02:35 Clear 65 18.3 63 17.2 93 93 S 3 6 29.84 1010 10 16 0.00 0.00
2:55 am 02:55 Clear 66 18.8 64 17.6 93 93 S 3 6 29.84 1010 10 16 0.00 0.00
3:15 am 03:15 Clear 66 19 64 17.7 92 92 SSE 3 6 29.84 1010 10 16 0.00 0.00
3:35 am 03:35 Clear 68 20.2 65 18.3 89 89 ESE 3 6 29.84 1010 10 16 0.00 0.00
3:55 am 03:55 Clear 67 19.6 65 18.1 91 91 SE 5 7 29.84 1010 10 16 0.00 0.00
4:15 am 04:15 Clear 67 19.3 64 17.9 92 92 ESE 6 9 29.84 1010 10 16 0.00 0.00
4:35 am 04:35 Clear 67 19.4 64 18 92 92 SE 6 9 29.83 1010 10 16 0.00 0.00
4:55 am 04:55 Clear 67 19.4 65 18.1 92 92 SE 5 7 29.83 1010 10 16 0.00 0.00
5:15 am 05:15 Clear 67 19.3 64 18 92 92 ESE 3 6 29.84 1010 10 16 0.00 0.00
5:35 am 05:35 Clear 66 19 64 17.7 92 92 ESE 6 9 29.84 1010 10 16 0.00 0.00
6:00 am 06:00 Mostly Clear 66 19 64 18 94 94 Calm 29.84 1010 10 16 0.00 0.00
6:47 am 06:47 Mostly Sunny 66 19 64 18 94 94 Calm 29.85 1011 10 16 0.00 0.00
7:55 am 07:55 Mostly Sunny 73 23 68 20 83 83 SSE 6 9 29.87 1011 10 16 0.00 0.00
8:51 am 08:51 Mostly Sunny 79 26 68 20 70 70 S 10 17 29.88 1012 10 16 0.00 0.00
9:51 am 09:51 Mostly Sunny 82 28 66 19 58 58 SSE 10 17 29.88 1012 10 16 0.00 0.00
10:51 am 10:51 Mostly Sunny 84 29 66 19 55 55 S 12 19 29.88 1012 10 16 0.00 0.00
11:50 am 11:50 Mostly Cloudy 86 30 70 21 59 59 S 9 15 29.88 1012 10 16 0.00 0.00
12:55 pm 12:55 Mostly Cloudy 88 31 68 20 52 52 SSW 8 13 29.86 1011 10 16 0.00 0.00
1:45 pm 13:45 Mostly Cloudy 88 31 68 20 52 52 SSW 8 13 29.85 1011 10 16 0.00 0.00
2:47 pm 14:47 Mostly Cloudy 86 30 70 21 59 59 SSW 12 19 29.84 1010 10 16 0.00 0.00
3:48 pm 15:48 Mostly Cloudy 88 31 68 20 52 52 SSW 13 20 29.83 1010 10 16 0.00 0.00
4:52 pm 16:52 Mostly Cloudy 88 31 68 20 52 52 S 17 28 29.82 1010 10 16 0.00 0.00
5:55 pm 17:55 Partly Cloudy 86 30 70 21 59 59 S 13 20 29.81 1009 10 16 0.00 0.00
6:45 pm 18:45 Partly Cloudy 84 29 70 21 62 62 S 10 17 29.81 1009 10 16 0.00 0.00
7:47 pm 19:47 Mostly Sunny 81 27 72 22 74 74 S 12 19 29.81 1009 10 16 0.00 0.00
8:49 pm 20:49 Mostly Clear 73 23 70 21 89 89 S 6 9 29.83 1010 10 16 0.00 0.00
9:49 pm 21:49 Mostly Clear 73 23 70 21 89 89 Calm 29.85 1011 10 16 0.00 0.00
10:15 pm 22:15 Clear 73 22.6 70 20.9 90 90 SSE 6 9 29.86 1011 10 16 0.00 0.00
10:35 pm 22:35 Clear 73 22.5 70 21.1 92 92 SSE 7 11 29.86 1011 10 16 0.00 0.00
10:55 pm 22:55 Clear 73 22.5 70 20.9 91 91 SSE 8 13 29.87 1011 10 16 0.00 0.00
11:15 pm 23:15 Clear 74 23.2 71 21.5 90 90 SSE 7 11 29.87 1011 10 16 0.00 0.00
11:35 pm 23:35 Clear 74 23.5 71 21.7 90 90 SE 7 11 29.87 1011 10 16 0.00 0.00
11:55 pm 23:55 Clear 74 23.2 71 21.5 90 90 SSE 7 11 29.87 1011 10 16 0.00 0.00

Powered by AerisWeather